K0KDS Weather Reports


Display with metric or nautical units.
time (UTC)temp
F
wind
direction
speed
MPH
gust
MPH
rain 1hr
in
rain 24hr
in
rain mn
in
humidity
%
barometer
mb
20210804155652 77 162 1.0 2.0 0.00 0.00 0.00 59 987.0
20210804155423 76 136 1.0 3.0 0.00 0.00 0.00 60 987.1
20210804154657 76 173 1.0 3.0 0.00 0.00 0.00 61 987.0
20210804154426 76 284 0.0 2.0 0.00 0.00 0.00 61 987.0
20210804154031 76 181 0.0 2.0 0.00 0.00 0.00 63 987.1
20210804154020 76 205 0.0 1.0 0.00 0.00 0.00 64 987.0
20210804152651 76 198 0.0 2.0 0.00 0.00 0.00 63 987.0
20210804152147 75 178 0.0 1.0 0.00 0.00 0.00 65 987.1
20210804151940 75 179 1.0 2.0 0.00 0.00 0.00 63 987.1
20210804151649 75 189 0.0 2.0 0.00 0.00 0.00 64 987.1
20210804150644 75 188 0.0 2.0 0.00 0.00 0.00 62 987.2
20210804150143 75 200 0.0 2.0 0.00 0.00 0.00 63 987.1
20210804145644 75 182 0.0 2.0 0.00 0.00 0.00 65 987.0
20210804145145 75 181 0.0 2.0 0.00 0.00 0.00 63 987.0
20210804144643 74 214 0.0 2.0 0.00 0.00 0.00 64 987.1
20210804144144 74 184 0.0 1.0 0.00 0.00 0.00 66 987.1
20210804143641 73 183 0.0 2.0 0.00 0.00 0.00 68 987.1
20210804143409 73 182 0.0 2.0 0.00 0.00 0.00 68 987.0
20210804142642 72 207 0.0 2.0 0.00 0.00 0.00 67 987.1
20210804142436 72 189 0.0 2.0 0.00 0.00 0.00 71 987.1
20210804142432 71 188 0.0 2.0 0.00 0.00 0.00 73 987.1
20210804142344 72 190 0.0 2.0 0.00 0.00 0.00 68 987.1
20210804142121 72 187 0.0 2.0 0.00 0.00 0.00 68 987.1
20210804140556 70 190 0.0 0.0 0.00 0.00 0.00 77 987.1
20210804140550 70 190 0.0 1.0 0.00 0.00 0.00 76 987.1
20210804140545 71 190 0.0 1.0 0.00 0.00 0.00 74 987.1
20210804134904 69 189 0.0 3.0 0.00 0.00 0.00 79 987.0
20210804134359 69 189 0.0 3.0 0.00 0.00 0.00 80 987.0
20210804134350 69 205 0.0 1.0 0.00 0.00 0.00 80 987.2
20210804134303 67 194 0.0 1.0 0.00 0.00 0.00 82 987.2
20210804133209 68 193 0.0 1.0 0.00 0.00 0.00 81 987.2
20210804132647 67 194 0.0 0.0 0.00 0.00 0.00 82 987.2
20210804132156 66 196 0.0 0.0 0.00 0.00 0.00 89 987.3
20210804131631 66 196 0.0 1.0 0.00 0.00 0.00 84 987.3
20210804130631 66 196 0.0 0.0 0.00 0.00 0.00 93 987.2
20210804130405 66 196 0.0 0.0 0.00 0.00 0.00 95 987.2
20210804125629 65 196 0.0 0.0 0.00 0.00 0.00 95 987.1
20210804125140 64 196 0.0 0.0 0.00 0.00 0.00 95 987.2
20210804125131 64 196 0.0 0.0 0.00 0.00 0.00 95 987.1
20210804124130 63 196 0.0 0.0 0.00 0.00 0.00 96 987.1
20210804123859 62 196 0.0 0.0 0.00 0.00 0.00 96 987.0
20210804123359 62 196 0.0 0.0 0.00 0.00 0.00 95 986.9
20210804122625 61 196 0.0 0.0 0.00 0.00 0.00 95 987.0
20210804122355 61 196 0.0 0.0 0.00 0.00 0.00 95 986.9
20210804122305 60 196 0.0 0.0 0.00 0.00 0.00 95 986.8
20210804121855 61 196 0.0 0.0 0.00 0.00 0.00 95 986.8
20210804121125 61 196 0.0 0.0 0.00 0.00 0.00 95 986.9
20210804120125 60 196 0.0 0.0 0.00 0.00 0.00 95 986.8
20210804115624 60 196 0.0 0.0 0.00 0.00 0.00 95 986.8
20210804115127 60 196 0.0 0.0 0.00 0.00 0.00 95 986.8
20210804114624 60 196 0.0 0.0 0.00 0.00 0.00 95 986.6
20210804114127 60 196 0.0 0.0 0.00 0.00 0.00 95 986.7
20210804113625 60 196 0.0 0.0 0.00 0.00 0.00 95 986.7
20210804113413 60 196 0.0 0.0 0.00 0.00 0.00 95 986.7
20210804113322 60 196 0.0 0.0 0.00 0.00 0.00 95 986.6
20210804112411 60 196 0.0 0.0 0.00 0.00 0.00 95 986.6
20210804112323 60 196 0.0 0.0 0.00 0.00 0.00 95 986.4
20210804112316 60 196 0.0 0.0 0.00 0.00 0.00 95 986.5
20210804111258 60 196 0.0 0.0 0.00 0.00 0.00 94 986.4
20210804110355 60 196 0.0 0.0 0.00 0.00 0.00 94 986.4
20210804110127 60 196 0.0 0.0 0.00 0.00 0.00 94 986.3
20210804105124 60 196 0.0 0.0 0.00 0.00 0.00 94 986.3
20210804104625 60 196 0.0 0.0 0.00 0.00 0.00 94 986.3
20210804104355 60 196 0.0 0.0 0.00 0.00 0.00 94 986.3
20210804103904 60 196 0.0 0.0 0.00 0.00 0.00 94 986.2
20210804103450 60 196 0.0 0.0 0.00 0.00 0.00 94 986.2
20210804103436 60 196 0.0 0.0 0.00 0.00 0.00 94 986.2
20210804102419 60 196 0.0 0.0 0.00 0.00 0.00 94 986.2
20210804102411 60 196 0.0 0.0 0.00 0.00 0.00 94 986.2
20210804102144 60 196 0.0 0.0 0.00 0.00 0.00 94 986.2
20210804101207 60 196 0.0 0.0 0.00 0.00 0.00 94 986.3
20210804100125 60 196 0.0 0.0 0.00 0.00 0.00 94 986.3
20210804095658 60 196 0.0 0.0 0.00 0.00 0.00 93 986.2
20210804095648 60 196 0.0 0.0 0.00 0.00 0.00 93 986.2
20210804094936 60 196 0.0 0.0 0.00 0.00 0.00 93 986.2
20210804094624 60 196 0.0 0.0 0.00 0.00 0.00 93 986.3
20210804093931 61 196 0.0 0.0 0.00 0.00 0.00 93 986.3
20210804093643 60 196 0.0 0.0 0.00 0.00 0.00 93 986.3
20210804093255 61 196 0.0 0.0 0.00 0.00 0.00 93 986.3
20210804092859 61 196 0.0 0.0 0.00 0.00 0.00 93 986.3
20210804091618 61 196 0.0 0.0 0.00 0.00 0.00 94 986.2
20210804091346 61 196 0.0 0.0 0.00 0.00 0.00 93 986.2
20210804090903 61 196 0.0 0.0 0.00 0.00 0.00 93 986.2
20210804090356 61 196 0.0 0.0 0.00 0.00 0.00 93 986.3
20210804085612 61 196 0.0 0.0 0.00 0.00 0.00 93 986.2
20210804085403 61 196 0.0 0.0 0.00 0.00 0.00 93 986.3
20210804084837 61 196 0.0 0.0 0.00 0.00 0.00 93 986.2
20210804084728 61 196 0.0 0.0 0.00 0.00 0.00 93 986.3
20210804083845 61 196 0.0 0.0 0.00 0.00 0.00 93 986.4
20210804083605 61 196 0.0 0.0 0.00 0.00 0.00 93 986.2
20210804082843 61 196 0.0 0.0 0.00 0.00 0.00 93 986.3
20210804082749 61 196 0.0 0.0 0.00 0.00 0.00 93 986.3
20210804081601 61 196 0.0 0.0 0.00 0.00 0.00 92 986.3
20210804081104 61 196 0.0 0.0 0.00 0.00 0.00 92 986.3
20210804080601 61 196 0.0 0.0 0.00 0.00 0.00 92 986.3
20210804080102 61 196 0.0 0.0 0.00 0.00 0.00 92 986.3
20210804075600 61 196 0.0 0.0 0.00 0.00 0.00 92 986.3
20210804075119 61 196 0.0 0.0 0.00 0.00 0.00 92 986.4
20210804075100 61 196 0.0 0.0 0.00 0.00 0.00 92 986.4
20210804074555 61 196 0.0 0.0 0.00 0.00 0.00 92 986.5
20210804073551 61 196 0.0 0.0 0.00 0.00 0.00 92 986.4
20210804073323 61 196 0.0 0.0 0.00 0.00 0.00 91 986.3
20210804072840 62 196 0.0 0.0 0.00 0.00 0.00 91 986.3
20210804072326 62 196 0.0 0.0 0.00 0.00 0.00 91 986.2
20210804071547 62 196 0.0 0.0 0.00 0.00 0.00 91 986.2
20210804071045 62 196 0.0 0.0 0.00 0.00 0.00 91 986.2
20210804070546 62 196 0.0 0.0 0.00 0.00 0.00 91 986.2
20210804070444 62 196 0.0 0.0 0.00 0.00 0.00 90 986.2
20210804070122 62 196 0.0 0.0 0.00 0.00 0.00 90 986.1
20210804065319 62 196 0.0 0.0 0.00 0.00 0.00 90 986.2
20210804064538 62 196 0.0 0.0 0.00 0.00 0.00 90 986.2
20210804064309 62 196 0.0 0.0 0.00 0.00 0.00 90 986.3
20210804063803 62 196 0.0 0.0 0.00 0.00 0.00 90 986.2
20210804063031 62 196 0.0 0.0 0.00 0.00 0.00 90 986.2
20210804062530 62 196 0.0 0.0 0.00 0.00 0.00 90 986.2
20210804062031 63 196 0.0 0.0 0.00 0.00 0.00 90 986.2
20210804061759 63 196 0.0 0.0 0.00 0.00 0.00 90 986.2
20210804061027 63 196 0.0 0.0 0.00 0.00 0.00 89 986.2
20210804060526 63 196 0.0 0.0 0.00 0.00 0.00 89 986.2
20210804060025 63 196 0.0 0.0 0.00 0.00 0.00 89 986.2
20210804055524 63 196 0.0 0.0 0.00 0.00 0.00 89 986.2
20210804055024 63 196 0.0 0.0 0.00 0.00 0.00 88 986.2
20210804054751 63 196 0.0 0.0 0.00 0.00 0.00 87 986.1
20210804054713 63 196 0.0 0.0 0.00 0.00 0.00 88 986.2
20210804054026 63 196 0.0 0.0 0.00 0.00 0.00 88 986.1
20210804053832 64 196 0.0 0.0 0.00 0.00 0.00 88 986.1
20210804053312 64 196 0.0 0.0 0.00 0.00 0.00 88 986.1
20210804052218 64 196 0.0 0.0 0.00 0.00 0.00 86 986.1
20210804052123 64 196 0.0 0.0 0.00 0.00 0.00 86 986.0
20210804052106 64 196 0.0 0.0 0.00 0.00 0.00 87 986.1
20210804051159 64 196 0.0 0.0 0.00 0.00 0.00 86 986.0
20210804050819 64 196 0.0 0.0 0.00 0.00 0.00 86 986.0
20210804050429 64 196 0.0 0.0 0.00 0.00 0.00 86 986.0
20210804050017 64 196 0.0 0.0 0.00 0.00 0.00 86 986.0
20210804044524 64 196 0.0 0.0 0.00 0.00 0.00 85 986.1
20210804044023 64 196 0.0 0.0 0.00 0.00 0.00 85 986.0
20210804043520 65 196 0.0 0.0 0.00 0.00 0.00 85 986.0
20210804043334 65 196 0.0 0.0 0.00 0.00 0.00 85 985.9
20210804043329 65 196 0.0 0.0 0.00 0.00 0.00 85 986.0
20210804042459 65 196 0.0 0.0 0.00 0.00 0.00 83 985.9
20210804042450 65 196 0.0 0.0 0.00 0.00 0.00 84 985.9
20210804041514 65 196 0.0 0.0 0.00 0.00 0.00 83 986.0
20210804040747 65 196 0.0 0.0 0.00 0.00 0.00 83 985.9
20210804040015 65 196 0.0 0.0 0.00 0.00 0.00 83 986.0
20210804035803 66 196 0.0 0.0 0.00 0.00 0.00 83 985.9
20210804035442 66 196 0.0 0.0 0.00 0.00 0.00 80 986.0
20210804035015 66 196 0.0 0.0 0.00 0.00 0.00 82 985.9
20210804034938 66 196 0.0 0.0 0.00 0.00 0.00 81 985.9
20210804034930 66 196 0.0 0.0 0.00 0.00 0.00 81 985.9
20210804033259 66 196 0.0 0.0 0.00 0.00 0.00 80 985.9
20210804032514 67 196 0.0 0.0 0.00 0.00 0.00 79 985.9
20210804032013 67 196 0.0 0.0 0.00 0.00 0.00 78 985.9
20210804031513 67 196 0.0 0.0 0.00 0.00 0.00 78 986.0
20210804031012 67 196 0.0 0.0 0.00 0.00 0.00 77 986.0
20210804030746 67 196 0.0 0.0 0.00 0.00 0.00 77 985.9
20210804030247 67 196 0.0 0.0 0.00 0.00 0.00 77 985.9
20210804025516 67 196 0.0 0.0 0.00 0.00 0.00 77 985.8
20210804025015 68 196 0.0 0.0 0.00 0.00 0.00 77 985.8
20210804024746 68 196 0.0 0.0 0.00 0.00 0.00 76 985.7
20210804024011 68 193 0.0 0.0 0.00 0.00 0.00 76 985.7
20210804023745 68 193 0.0 0.0 0.00 0.00 0.00 75 985.6
20210804023244 68 193 0.0 0.0 0.00 0.00 0.00 74 985.6
20210804022908 69 193 0.0 0.0 0.00 0.00 0.00 73 985.5
20210804022809 68 193 0.0 0.0 0.00 0.00 0.00 74 985.6
20210804021740 69 193 0.0 0.0 0.00 0.00 0.00 73 985.4
20210804021332 69 193 0.0 0.0 0.00 0.00 0.00 72 985.3
20210804021215 70 193 0.0 0.0 0.00 0.00 0.00 70 985.3
20210804021116 69 193 0.0 0.0 0.00 0.00 0.00 71 985.3
20210804015510 70 193 0.0 0.0 0.00 0.00 0.00 70 985.4
20210804015301 70 193 0.0 0.0 0.00 0.00 0.00 69 985.3
20210804014738 71 193 0.0 0.0 0.00 0.00 0.00 68 985.3
20210804014006 71 193 0.0 0.0 0.00 0.00 0.00 67 985.2
20210804013505 71 193 0.0 0.0 0.00 0.00 0.00 66 985.3
20210804013240 72 193 0.0 0.0 0.00 0.00 0.00 65 985.2
20210804012506 72 193 0.0 0.0 0.00 0.00 0.00 65 985.1
20210804012306 73 193 0.0 0.0 0.00 0.00 0.00 63 985.1
20210804012006 73 193 0.0 0.0 0.00 0.00 0.00 64 985.1
20210804011237 73 193 0.0 0.0 0.00 0.00 0.00 63 985.0
20210804010753 73 193 0.0 0.0 0.00 0.00 0.00 62 985.0
20210804010000 74 193 0.0 0.0 0.00 0.00 0.00 61 985.0
20210804005459 74 193 0.0 0.0 0.00 0.00 0.00 61 985.1
20210804005245 74 193 0.0 0.0 0.00 0.00 0.00 61 985.2
20210804004741 75 193 0.0 0.0 0.00 0.00 0.00 60 985.2
20210804004503 74 193 0.0 0.0 0.00 0.00 0.00 60 985.2
20210804003459 75 193 0.0 0.0 0.00 0.00 0.00 59 985.1
20210804002957 75 193 0.0 0.0 0.00 0.00 0.00 59 985.2
20210804002800 75 193 0.0 0.0 0.00 0.00 0.00 59 985.2
20210804002029 75 193 0.0 0.0 0.00 0.00 0.00 58 985.2
20210804002015 75 193 0.0 0.0 0.00 0.00 0.00 59 985.2
20210804001000 75 193 0.0 0.0 0.00 0.00 0.00 58 985.1
20210804000747 75 193 0.0 0.0 0.00 0.00 0.00 58 985.1
20210803235957 76 193 0.0 0.0 0.00 0.00 0.00 58 985.1
20210803235500 76 193 0.0 0.0 0.00 0.00 0.00 58 985.2
20210803234958 76 193 0.0 0.0 0.00 0.00 0.00 57 985.2
20210803234500 76 193 0.0 0.0 0.00 0.00 0.00 58 985.2
20210803234252 76 193 0.0 1.0 0.00 0.00 0.00 56 985.2
20210803234012 76 193 0.0 0.0 0.00 0.00 0.00 57 985.2
20210803233247 77 193 0.0 1.0 0.00 0.00 0.00 54 985.2
20210803232958 76 193 0.0 1.0 0.00 0.00 0.00 54 985.2
20210803232228 77 196 0.0 0.0 0.00 0.00 0.00 55 985.2
20210803231532 77 191 0.0 2.0 0.00 0.00 0.00 53 985.3
20210803231458 77 192 0.0 1.0 0.00 0.00 0.00 54 985.3
20210803230958 77 192 0.0 2.0 0.00 0.00 0.00 53 985.3
20210803225958 77 191 0.0 1.0 0.00 0.00 0.00 54 985.3
20210803225501 77 195 0.0 0.0 0.00 0.00 0.00 55 985.4
20210803224959 77 198 0.0 1.0 0.00 0.00 0.00 55 985.3
20210803224525 78 280 0.0 0.0 0.00 0.00 0.00 54 985.3
20210803224500 77 280 0.0 1.0 0.00 0.00 0.00 55 985.3
20210803223501 78 280 0.0 2.0 0.00 0.00 0.00 53 985.3
20210803222957 78 280 0.0 2.0 0.00 0.00 0.00 52 985.4
20210803222546 78 195 0.0 0.0 0.00 0.00 0.00 53 985.3
20210803222500 78 196 0.0 0.0 0.00 0.00 0.00 52 985.4
20210803222100 78 195 0.0 0.0 0.00 0.00 0.00 53 985.3
20210803221553 79 195 0.0 2.0 0.00 0.00 0.00 50 985.3
20210803221000 79 195 0.0 2.0 0.00 0.00 0.00 51 985.2
20210803220634 79 193 0.0 2.0 0.00 0.00 0.00 53 985.4
20210803215821 79 262 0.0 2.0 0.00 0.00 0.00 53 985.5
20210803215500 79 193 0.0 1.0 0.00 0.00 0.00 51 985.4
20210803215034 79 193 0.0 1.0 0.00 0.00 0.00 52 985.4
20210803214747 79 262 0.0 1.0 0.00 0.00 0.00 52 985.5
20210803213500 78 262 0.0 2.0 0.00 0.00 0.00 52 985.5
20210803213311 79 198 0.0 0.0 0.00 0.00 0.00 52 985.5
20210803212957 78 304 0.0 1.0 0.00 0.00 0.00 51 985.5
20210803212935 79 282 0.0 0.0 0.00 0.00 0.00 51 985.5
20210803211500 79 236 0.0 1.0 0.00 0.00 0.00 52 985.6
20210803210958 79 293 0.0 2.0 0.00 0.00 0.00 51 985.6
20210803210502 78 196 0.0 2.0 0.00 0.00 0.00 54 985.7
20210803210031 78 208 0.0 2.0 0.00 0.00 0.00 53 985.8
20210803210017 78 213 0.0 2.0 0.00 0.00 0.00 53 985.7
20210803205605 78 344 0.0 2.0 0.00 0.00 0.00 51 985.8
20210803205257 78 281 0.0 2.0 0.00 0.00 0.00 51 985.7
20210803205253 78 221 0.0 2.0 0.00 0.00 0.00 50 985.7
20210803203459 78 330 0.0 2.0 0.00 0.00 0.00 53 985.8
20210803203217 78 221 0.0 1.0 0.00 0.00 0.00 53 985.8
20210803203138 78 330 0.0 2.0 0.00 0.00 0.00 52 985.9
20210803202814 78 226 0.0 1.0 0.00 0.00 0.00 51 985.9
20210803201453 78 218 0.0 1.0 0.00 0.00 0.00 53 985.8
20210803200951 78 218 0.0 1.0 0.00 0.00 0.00 50 985.8
20210803200530 78 18 0.0 2.0 0.00 0.00 0.00 52 985.8
20210803200459 78 218 0.0 2.0 0.00 0.00 0.00 51 985.8
20210803200426 78 136 0.0 1.0 0.00 0.00 0.00 51 985.9
20210803195452 78 285 0.0 2.0 0.00 0.00 0.00 52 985.8
20210803194448 78 136 0.0 2.0 0.00 0.00 0.00 52 985.9
20210803193948 78 136 0.0 2.0 0.00 0.00 0.00 50 986.0
20210803193447 79 160 1.0 3.0 0.00 0.00 0.00 50 986.0
20210803192949 79 157 1.0 3.0 0.00 0.00 0.00 51 986.0
20210803192738 78 99 0.0 2.0 0.00 0.00 0.00 51 986.0
20210803191944 79 121 0.0 2.0 0.00 0.00 0.00 50 986.0
20210803191442 79 165 1.0 2.0 0.00 0.00 0.00 51 986.0
20210803190940 79 303 1.0 3.0 0.00 0.00 0.00 50 986.0
20210803190440 78 192 1.0 3.0 0.00 0.00 0.00 50 986.0
20210803190238 78 193 0.0 0.0 0.00 0.00 0.00 53 986.0
20210803185436 78 197 0.0 0.0 0.00 0.00 0.00 52 986.0
20210803185217 78 191 0.0 0.0 0.00 0.00 0.00 53 986.0
20210803185118 78 191 0.0 2.0 0.00 0.00 0.00 52 986.1
20210803183931 78 191 0.0 2.0 0.00 0.00 0.00 53 986.1
20210803183702 78 191 0.0 2.0 0.00 0.00 0.00 53 986.1
20210803183203 77 191 1.0 2.0 0.00 0.00 0.00 54 986.1
20210803182739 77 189 1.0 3.0 0.00 0.00 0.00 54 986.2
20210803182432 77 186 1.0 3.0 0.00 0.00 0.00 54 986.2
20210803181431 77 197 1.0 2.0 0.00 0.00 0.00 55 986.3
20210803181157 77 191 1.0 3.0 0.00 0.00 0.00 54 986.4
20210803180424 77 191 1.0 3.0 0.00 0.00 0.00 55 986.5
20210803180154 77 302 0.0 2.0 0.00 0.00 0.00 56 986.5
20210803175421 77 355 0.0 3.0 0.00 0.00 0.00 52 986.5
20210803175153 78 349 1.0 5.0 0.00 0.00 0.00 51 986.5
20210803174423 78 164 1.0 5.0 0.00 0.00 0.00 52 986.7
20210803173920 78 203 0.0 2.0 0.00 0.00 0.00 52 986.6
20210803173418 78 200 0.0 2.0 0.00 0.00 0.00 54 986.7
20210803172917 78 173 0.0 2.0 0.00 0.00 0.00 55 986.7
20210803172708 78 197 1.0 2.0 0.00 0.00 0.00 53 986.8
20210803172144 78 192 1.0 2.0 0.00 0.00 0.00 56 986.8
20210803171415 77 161 1.0 3.0 0.00 0.00 0.00 55 986.8
20210803170911 77 69 0.0 2.0 0.00 0.00 0.00 57 986.8
20210803170411 77 191 0.0 2.0 0.00 0.00 0.00 57 986.9
20210803165912 76 351 0.0 2.0 0.00 0.00 0.00 58 987.0
20210803165413 76 302 0.0 2.0 0.00 0.00 0.00 58 987.0
20210803164907 75 280 1.0 2.0 0.00 0.00 0.00 59 987.0
20210803164638 75 253 0.0 2.0 0.00 0.00 0.00 59 987.0
20210803164206 76 231 0.0 1.0 0.00 0.00 0.00 60 987.0
20210803163407 76 231 0.0 1.0 0.00 0.00 0.00 59 987.0
20210803163144 76 236 0.0 1.0 0.00 0.00 0.00 59 986.9
20210803162408 76 266 0.0 1.0 0.00 0.00 0.00 60 986.8
20210803161907 76 265 0.0 1.0 0.00 0.00 0.00 60 986.8
20210803161636 75 264 0.0 2.0 0.00 0.00 0.00 61 986.8
20210803161542 75 264 0.0 2.0 0.00 0.00 0.00 61 986.9
20210803160405 74 190 0.0 2.0 0.00 0.00 0.00 65 986.9
20210803160214 74 347 1.0 2.0 0.00 0.00 0.00 63 987.0
20210803160206 74 333 1.0 2.0 0.00 0.00 0.00 63 986.9